Regional Weather Roundup
Issued by NWS

Home | Current Version | Previous Version | Graphics & Text | Print | Product List | Glossary On
Versions: 1 2 3 4 5 6 7 8 9 10 11 12 13 14 15 16 17 18 19 20 21 22 23 24 25 26 27 28 29 30 31 32 33 34 35 36 37 38 39 40 41 42 43 44 45 46 47 48 49 50
000
ASUS45 KCYS 310510
RWRWY

WYOMING REGIONAL WEATHER ROUNDUP
NATIONAL WEATHER SERVICE CHEYENNE WY
1100 PM MDT WED JUL 30 2014

NOTE:  "FAIR" INDICATES FEW OR NO CLOUDS BELOW 12,000 FEET
WITH NO SIGNIFICANT WEATHER AND/OR OBSTRUCTIONS TO VISIBILITY.

WYZ001-310600-
YELLOWSTONE NATIONAL PARK

CITY           SKY/WX    TMP DP  RH WIND       PRES   REMARKS
LK YELLOWSTONE   N/A     49  42  77 CALM      30.48R
W YELLOWSTONE  NOT AVBL

$$
WYZ002>013-054>058-071-098>099-310600-
NORTHERN WYOMING

CITY           SKY/WX    TMP DP  RH WIND       PRES   REMARKS
JACKSON        PTCLDY    57  48  72 SE3       30.38S
CODY           NOT AVBL
GREYBULL       MOCLDY    70  45  40 SE6       30.18S
WORLAND        MOCLDY    69  44  40 S10       30.21S
SHERIDAN       PTCLDY    59  45  59 S5        30.21F
BUFFALO        MOCLDY    64  36  35 W9        30.30R
GILLETTE       CLOUDY    57  47  69 SW3       30.24S
HULETT         FAIR      59  46  63 MISG      30.25
NEWCASTLE      FAIR      64  43  45 N6        30.24

$$
WYZ014>020-022>026-101>103-310600-
CENTRAL WYOMING

CITY           SKY/WX    TMP DP  RH WIND       PRES   REMARKS
BIG PINEY      PTCLDY    52  45  77 NE5       30.44S
PINEDALE       PTCLDY    46  45  93 NW6       30.45S
DUBOIS         FAIR      52  32  46 NW5       30.44S
LANDER         PTCLDY    65  43  44 SW14      30.31S
RIVERTON       PTCLDY    62  43  49 NW10      30.32S
CASPER         CLOUDY    64  44  48 W7        30.29R
DOUGLAS        CLOUDY    63  51  65 CALM      30.27S

$$
WYZ021-027>030-104>119-310600-
SOUTHERN WYOMING

CITY           SKY/WX    TMP DP  RH WIND       PRES   REMARKS
EVANSTON       PTCLDY    56  52  86 NE6       30.40S
KEMMERER       MOCLDY   N/A N/A N/A NE6       30.44S
FORT BRIDGER   CLOUDY    57  54  88 E6        30.44F
ROCK SPRINGS   CLOUDY    56  45  66 N7        30.40S
DIXON          CLOUDY    59  50  71 N9        30.36F
RAWLINS        CLOUDY    57  49  74 E8        30.38S
SARATOGA       MOCLDY    55  48  76 SE6       30.40S
LARAMIE        CLOUDY    54  51  90 NW3       30.42R
CHEYENNE       CLOUDY    57  54  89 SW6       30.36S
TORRINGTON     CLOUDY    65  57  75 SW5       30.23S
PINE BLUFFS    FAIR      55  55 100 S5        30.33S

$$


USA.gov is the U.S. government's official web portal to all federal, state and local government web resources and services.